Time,TemperatureF,DewpointF,PressureIn,WindDirection,WindDirectionDegrees,WindSpeedMPH,WindSpeedGustMPH,Humidity,HourlyPrecipIn,Conditions,Clouds,dailyrainin,SoftwareType,DateUTC
2013-02-02 00:00:00,21.3,8.8,30.28,NW,323,1.0,6.0,58,0.00,,CLR,0.00,VWS V14.00,2013-02-02 05:00:00,
2013-02-02 00:05:00,21.1,8.6,30.28,WNW,294,0.0,1.0,58,0.00,,CLR,0.00,VWS V14.00,2013-02-02 05:05:00,
2013-02-02 00:10:00,21.1,8.6,30.28,West,275,1.0,2.0,58,0.00,,CLR,0.00,VWS V14.00,2013-02-02 05:10:00,
2013-02-02 00:15:00,21.1,8.6,30.28,NW,308,3.0,10.0,58,0.00,,CLR,0.00,VWS V14.00,2013-02-02 05:15:00,
2013-02-02 00:20:00,21.0,8.9,30.28,SW,221,2.0,2.0,59,0.00,,CLR,0.00,VWS V14.00,2013-02-02 05:20:00,
2013-02-02 00:25:00,20.9,8.8,30.28,WSW,241,3.0,6.0,59,0.00,,CLR,0.00,VWS V14.00,2013-02-02 05:25:00,
2013-02-02 00:30:00,20.9,8.8,30.29,WNW,298,2.0,2.0,59,0.00,,CLR,0.00,VWS V14.00,2013-02-02 05:30:00,
2013-02-02 00:41:00,20.7,8.6,30.29,West,270,2.0,6.0,59,0.00,,CLR,0.00,VWS V14.00,2013-02-02 05:41:00,
2013-02-02 00:46:00,20.7,8.6,30.29,North,355,2.0,2.0,59,0.00,,CLR,0.00,VWS V14.00,2013-02-02 05:46:00,
2013-02-02 00:51:00,20.7,8.6,30.29,WNW,282,2.0,3.0,59,0.00,,CLR,0.00,VWS V14.00,2013-02-02 05:51:00,
2013-02-02 00:56:00,20.6,8.6,30.29,WNW,289,0.0,0.0,59,0.00,,CLR,0.00,VWS V14.00,2013-02-02 05:56:00,
2013-02-02 01:01:00,20.5,8.8,30.29,West,277,1.0,1.0,60,0.00,,CLR,0.00,VWS V14.00,2013-02-02 06:01:00,
2013-02-02 01:06:00,20.4,8.4,30.29,NW,320,3.0,3.0,59,0.00,,CLR,0.00,VWS V14.00,2013-02-02 06:06:00,
2013-02-02 01:11:00,20.4,8.4,30.29,WNW,289,4.0,4.0,59,0.00,,CLR,0.00,VWS V14.00,2013-02-02 06:11:00,
2013-02-02 01:16:00,20.3,8.3,30.29,West,267,3.0,4.0,59,0.00,,CLR,0.00,VWS V14.00,2013-02-02 06:16:00,
2013-02-02 01:21:00,20.3,8.3,30.29,WNW,295,2.0,3.0,59,0.00,,CLR,0.00,VWS V14.00,2013-02-02 06:21:00,
2013-02-02 01:26:00,20.4,8.0,30.29,WNW,287,3.0,8.0,58,0.00,,CLR,0.00,VWS V14.00,2013-02-02 06:26:00,
2013-02-02 01:31:00,20.4,8.0,30.29,NW,309,2.0,4.0,58,0.00,,CLR,0.00,VWS V14.00,2013-02-02 06:31:00,
2013-02-02 01:36:00,20.3,8.3,30.29,NW,317,6.0,9.0,59,0.00,,CLR,0.00,VWS V14.00,2013-02-02 06:36:00,
2013-02-02 01:41:00,20.2,8.2,30.29,West,278,0.0,0.0,59,0.00,,CLR,0.00,VWS V14.00,2013-02-02 06:41:00,
2013-02-02 01:46:00,20.2,8.2,30.30,NW,306,0.0,0.0,59,0.00,,CLR,0.00,VWS V14.00,2013-02-02 06:46:00,
2013-02-02 01:51:00,20.1,8.5,30.30,NW,322,0.0,0.0,60,0.00,,CLR,0.00,VWS V14.00,2013-02-02 06:51:00,
2013-02-02 01:56:00,19.9,8.6,30.30,WNW,292,2.0,5.0,61,0.00,,CLR,0.00,VWS V14.00,2013-02-02 06:56:00,
2013-02-02 02:01:00,19.7,8.4,30.30,NW,323,2.0,4.0,61,0.00,,CLR,0.00,VWS V14.00,2013-02-02 07:01:00,
2013-02-02 02:06:00,19.7,8.8,30.30,WNW,299,9.0,9.0,62,0.00,,CLR,0.00,VWS V14.00,2013-02-02 07:06:00,
2013-02-02 02:11:00,19.7,8.8,30.30,NW,314,2.0,2.0,62,0.00,,CLR,0.00,VWS V14.00,2013-02-02 07:11:00,
2013-02-02 02:16:00,19.7,9.2,30.31,WNW,294,2.0,11.0,63,0.00,,CLR,0.00,VWS V14.00,2013-02-02 07:16:00,
2013-02-02 02:21:00,19.7,9.2,30.31,NW,322,3.0,7.0,63,0.00,,CLR,0.00,VWS V14.00,2013-02-02 07:21:00,
2013-02-02 02:26:00,19.7,9.2,30.31,West,276,0.0,2.0,63,0.00,,CLR,0.00,VWS V14.00,2013-02-02 07:26:00,
2013-02-02 02:31:00,19.6,9.1,30.31,WSW,248,0.0,2.0,63,0.00,,CLR,0.00,VWS V14.00,2013-02-02 07:31:00,
2013-02-02 02:36:00,19.5,9.0,30.31,NW,307,6.0,6.0,63,0.00,,CLR,0.00,VWS V14.00,2013-02-02 07:36:00,
2013-02-02 02:41:00,19.5,9.0,30.31,West,276,0.0,3.0,63,0.00,,CLR,0.00,VWS V14.00,2013-02-02 07:41:00,
2013-02-02 02:46:00,19.4,9.2,30.32,SW,236,3.0,5.0,64,0.00,,CLR,0.00,VWS V14.00,2013-02-02 07:46:00,
2013-02-02 02:51:00,19.3,9.1,30.32,WNW,297,2.0,4.0,64,0.00,,CLR,0.00,VWS V14.00,2013-02-02 07:51:00,
2013-02-02 02:56:00,19.3,9.1,30.32,WNW,295,1.0,4.0,64,0.00,,CLR,0.00,VWS V14.00,2013-02-02 07:56:00,
2013-02-02 03:01:00,19.2,9.0,30.31,WNW,298,0.0,2.0,64,0.00,,CLR,0.00,VWS V14.00,2013-02-02 08:01:00,
2013-02-02 03:06:00,19.1,8.9,30.31,WNW,290,0.0,1.0,64,0.00,,CLR,0.00,VWS V14.00,2013-02-02 08:06:00,
2013-02-02 03:11:00,19.1,8.6,30.31,NNW,329,4.0,4.0,63,0.00,,CLR,0.00,VWS V14.00,2013-02-02 08:11:00,
2013-02-02 03:16:00,19.1,8.6,30.31,North,5,1.0,3.0,63,0.00,,CLR,0.00,VWS V14.00,2013-02-02 08:16:00,
2013-02-02 03:21:00,19.1,8.6,30.31,NNW,329,0.0,0.0,63,0.00,,CLR,0.00,VWS V14.00,2013-02-02 08:21:00,
2013-02-02 03:26:00,19.0,8.5,30.31,WNW,295,0.0,1.0,63,0.00,,CLR,0.00,VWS V14.00,2013-02-02 08:26:00,
2013-02-02 03:31:00,18.9,8.4,30.31,WNW,298,0.0,6.0,63,0.00,,CLR,0.00,VWS V14.00,2013-02-02 08:31:00,
2013-02-02 03:36:00,18.9,8.4,30.31,NW,316,0.0,3.0,63,0.00,,CLR,0.00,VWS V14.00,2013-02-02 08:36:00,
2013-02-02 03:41:00,18.8,8.3,30.31,NNW,331,0.0,0.0,63,0.00,,CLR,0.00,VWS V14.00,2013-02-02 08:41:00,
2013-02-02 03:46:00,18.7,8.2,30.30,West,264,2.0,5.0,63,0.00,,CLR,0.00,VWS V14.00,2013-02-02 08:46:00,
2013-02-02 03:51:00,18.6,8.1,30.30,NW,311,0.0,3.0,63,0.00,,CLR,0.00,VWS V14.00,2013-02-02 08:51:00,
2013-02-02 03:56:00,18.6,8.1,30.30,NW,318,3.0,6.0,63,0.00,,CLR,0.00,VWS V14.00,2013-02-02 08:56:00,
2013-02-02 04:01:00,18.5,8.0,30.30,West,268,0.0,3.0,63,0.00,,CLR,0.00,VWS V14.00,2013-02-02 09:01:00,
2013-02-02 04:06:00,18.5,8.0,30.30,WSW,247,1.0,2.0,63,0.00,,CLR,0.00,VWS V14.00,2013-02-02 09:06:00,
2013-02-02 04:11:00,18.4,7.9,30.30,NW,307,4.0,6.0,63,0.00,,CLR,0.00,VWS V14.00,2013-02-02 09:11:00,
2013-02-02 04:16:00,18.4,7.9,30.30,NW,307,3.0,8.0,63,0.00,,CLR,0.00,VWS V14.00,2013-02-02 09:16:00,
2013-02-02 04:21:00,18.4,7.6,30.30,West,265,0.0,3.0,62,0.00,,CLR,0.00,VWS V14.00,2013-02-02 09:21:00,
2013-02-02 04:26:00,18.4,7.9,30.30,WNW,301,0.0,0.0,63,0.00,,CLR,0.00,VWS V14.00,2013-02-02 09:26:00,
2013-02-02 04:31:00,18.2,7.7,30.30,West,272,5.0,7.0,63,0.00,,CLR,0.00,VWS V14.00,2013-02-02 09:31:00,
2013-02-02 04:36:00,18.2,7.7,30.30,WNW,297,2.0,3.0,63,0.00,,CLR,0.00,VWS V14.00,2013-02-02 09:36:00,
2013-02-02 04:41:00,18.1,7.3,30.30,NW,323,1.0,3.0,62,0.00,,CLR,0.00,VWS V14.00,2013-02-02 09:41:00,
2013-02-02 04:46:00,18.1,7.6,30.30,WNW,296,0.0,2.0,63,0.00,,CLR,0.00,VWS V14.00,2013-02-02 09:46:00,
2013-02-02 04:51:00,18.1,7.3,30.30,NW,316,1.0,2.0,62,0.00,,CLR,0.00,VWS V14.00,2013-02-02 09:51:00,
2013-02-02 04:56:00,18.0,7.2,30.30,West,273,1.0,6.0,62,0.00,,CLR,0.00,VWS V14.00,2013-02-02 09:56:00,
2013-02-02 05:06:00,17.9,7.1,30.30,WNW,292,2.0,6.0,62,0.00,,CLR,0.00,VWS V14.00,2013-02-02 10:06:00,
2013-02-02 05:11:00,17.9,7.1,30.30,North,5,0.0,1.0,62,0.00,,CLR,0.00,VWS V14.00,2013-02-02 10:11:00,
2013-02-02 05:16:00,17.8,7.0,30.30,South,189,1.0,2.0,62,0.00,,CLR,0.00,VWS V14.00,2013-02-02 10:16:00,
2013-02-02 05:21:00,17.7,6.9,30.30,WNW,303,1.0,2.0,62,0.00,,CLR,0.00,VWS V14.00,2013-02-02 10:21:00,
2013-02-02 05:26:00,17.7,7.3,30.30,NW,314,0.0,2.0,63,0.00,,CLR,0.00,VWS V14.00,2013-02-02 10:26:00,
2013-02-02 05:31:00,17.6,7.2,30.30,West,260,0.0,0.0,63,0.00,,CLR,0.00,VWS V14.00,2013-02-02 10:31:00,
2013-02-02 05:36:00,17.5,7.4,30.30,West,263,0.0,1.0,64,0.00,,CLR,0.00,VWS V14.00,2013-02-02 10:36:00,
2013-02-02 05:41:00,17.3,7.2,30.30,WNW,290,0.0,2.0,64,0.00,,CLR,0.00,VWS V14.00,2013-02-02 10:41:00,
2013-02-02 05:46:00,17.3,7.2,30.30,WNW,290,0.0,0.0,64,0.00,,CLR,0.00,VWS V14.00,2013-02-02 10:46:00,
2013-02-02 05:51:00,17.2,7.1,30.30,WSW,242,1.0,2.0,64,0.00,,CLR,0.00,VWS V14.00,2013-02-02 10:51:00,
2013-02-02 05:56:00,17.1,7.0,30.30,West,276,0.0,0.0,64,0.00,,CLR,0.00,VWS V14.00,2013-02-02 10:56:00,
2013-02-02 06:01:00,17.0,7.3,30.30,West,265,0.0,0.0,65,0.00,,CLR,0.00,VWS V14.00,2013-02-02 11:01:00,
2013-02-02 06:06:00,16.9,7.2,30.30,WNW,294,0.0,0.0,65,0.00,,CLR,0.00,VWS V14.00,2013-02-02 11:06:00,
2013-02-02 06:11:00,16.8,7.4,30.30,WNW,292,0.0,0.0,66,0.00,,CLR,0.00,VWS V14.00,2013-02-02 11:11:00,
2013-02-02 06:16:00,16.7,7.3,30.30,NW,307,0.0,3.0,66,0.00,,CLR,0.00,VWS V14.00,2013-02-02 11:16:00,
2013-02-02 06:21:00,16.7,7.3,30.30,WSW,254,0.0,2.0,66,0.00,,CLR,0.00,VWS V14.00,2013-02-02 11:21:00,
2013-02-02 06:26:00,16.7,7.3,30.30,WNW,295,0.0,3.0,66,0.00,,CLR,0.00,VWS V14.00,2013-02-02 11:26:00,
2013-02-02 06:31:00,16.7,7.3,30.31,West,263,0.0,3.0,66,0.00,,CLR,0.00,VWS V14.00,2013-02-02 11:31:00,
2013-02-02 06:36:00,16.7,7.3,30.31,WNW,302,0.0,0.0,66,0.00,,CLR,0.00,VWS V14.00,2013-02-02 11:36:00,
2013-02-02 06:41:00,16.7,7.3,30.31,NW,320,6.0,6.0,66,0.00,,CLR,0.00,VWS V14.00,2013-02-02 11:41:00,
2013-02-02 06:46:00,16.7,7.0,30.31,WSW,246,0.0,0.0,65,0.00,,CLR,0.00,VWS V14.00,2013-02-02 11:46:00,
2013-02-02 06:51:00,16.7,7.0,30.31,West,263,0.0,0.0,65,0.00,,CLR,0.00,VWS V14.00,2013-02-02 11:51:00,
2013-02-02 06:56:00,16.7,7.3,30.31,West,263,0.0,0.0,66,0.00,,CLR,0.00,VWS V14.00,2013-02-02 11:56:00,
2013-02-02 07:01:00,16.6,7.2,30.31,West,275,0.0,0.0,66,0.00,,CLR,0.00,VWS V14.00,2013-02-02 12:01:00,
2013-02-02 07:06:00,16.6,7.2,30.31,WNW,298,0.0,1.0,66,0.00,,CLR,0.00,VWS V14.00,2013-02-02 12:06:00,
2013-02-02 07:11:00,16.5,7.1,30.31,WNW,295,0.0,0.0,66,0.00,,CLR,0.00,VWS V14.00,2013-02-02 12:11:00,
2013-02-02 07:16:00,16.5,7.1,30.31,WNW,283,0.0,0.0,66,0.00,,CLR,0.00,VWS V14.00,2013-02-02 12:16:00,
2013-02-02 07:21:00,16.4,7.0,30.31,WNW,283,0.0,0.0,66,0.00,,CLR,0.00,VWS V14.00,2013-02-02 12:21:00,
2013-02-02 07:26:00,16.4,7.0,30.31,WNW,283,0.0,0.0,66,0.00,,CLR,0.00,VWS V14.00,2013-02-02 12:26:00,
2013-02-02 07:31:00,16.5,7.5,30.31,WSW,243,0.0,0.0,67,0.00,,CLR,0.00,VWS V14.00,2013-02-02 12:31:00,
2013-02-02 07:36:00,16.5,7.5,30.31,WSW,244,0.0,0.0,67,0.00,,CLR,0.00,VWS V14.00,2013-02-02 12:36:00,
2013-02-02 07:41:00,16.6,7.6,30.31,WNW,296,0.0,2.0,67,0.00,,CLR,0.00,VWS V14.00,2013-02-02 12:41:00,
2013-02-02 07:46:00,16.8,7.8,30.31,WSW,257,1.0,3.0,67,0.00,,CLR,0.00,VWS V14.00,2013-02-02 12:46:00,
2013-02-02 07:51:00,17.0,7.9,30.31,WSW,256,0.0,2.0,67,0.00,,CLR,0.00,VWS V14.00,2013-02-02 12:51:00,
2013-02-02 07:56:00,17.2,7.8,30.31,WSW,240,2.0,3.0,66,0.00,,CLR,0.00,VWS V14.00,2013-02-02 12:56:00,
2013-02-02 08:01:00,17.3,7.9,30.32,WSW,248,0.0,0.0,66,0.00,,CLR,0.00,VWS V14.00,2013-02-02 13:01:00,
2013-02-02 08:06:00,17.5,8.1,30.32,WNW,286,0.0,2.0,66,0.00,,CLR,0.00,VWS V14.00,2013-02-02 13:06:00,
2013-02-02 08:11:00,17.7,8.3,30.32,NW,304,0.0,2.0,66,0.00,,CLR,0.00,VWS V14.00,2013-02-02 13:11:00,
2013-02-02 08:16:00,18.0,8.2,30.31,WSW,246,2.0,3.0,65,0.00,,CLR,0.00,VWS V14.00,2013-02-02 13:16:00,
2013-02-02 08:21:00,18.2,8.4,30.31,West,267,0.0,2.0,65,0.00,,CLR,0.00,VWS V14.00,2013-02-02 13:21:00,
2013-02-02 08:26:00,18.4,8.3,30.31,West,264,2.0,5.0,64,0.00,,CLR,0.00,VWS V14.00,2013-02-02 13:26:00,
2013-02-02 08:31:00,18.7,8.6,30.31,WSW,238,0.0,3.0,64,0.00,,CLR,0.00,VWS V14.00,2013-02-02 13:31:00,
2013-02-02 08:36:00,18.9,8.4,30.31,WSW,254,1.0,4.0,63,0.00,,CLR,0.00,VWS V14.00,2013-02-02 13:36:00,
2013-02-02 08:41:00,19.3,8.8,30.31,South,173,3.0,5.0,63,0.00,,CLR,0.00,VWS V14.00,2013-02-02 13:41:00,
2013-02-02 08:46:00,19.5,9.3,30.31,WSW,240,0.0,5.0,64,0.00,,CLR,0.00,VWS V14.00,2013-02-02 13:46:00,
2013-02-02 08:51:00,19.7,9.2,30.31,West,275,2.0,3.0,63,0.00,,CLR,0.00,VWS V14.00,2013-02-02 13:51:00,
2013-02-02 08:56:00,20.0,9.8,30.31,WSW,252,0.0,2.0,64,0.00,,CLR,0.00,VWS V14.00,2013-02-02 13:56:00,
2013-02-02 09:01:00,20.4,9.8,30.31,West,273,0.0,1.0,63,0.00,,CLR,0.00,VWS V14.00,2013-02-02 14:01:00,
2013-02-02 09:06:00,20.6,9.3,30.31,WNW,292,1.0,6.0,61,0.00,,CLR,0.00,VWS V14.00,2013-02-02 14:06:00,
2013-02-02 09:11:00,20.8,9.9,30.31,WNW,284,1.0,4.0,62,0.00,,CLR,0.00,VWS V14.00,2013-02-02 14:11:00,
2013-02-02 09:16:00,20.9,8.8,30.30,West,269,4.0,4.0,59,0.00,,CLR,0.00,VWS V14.00,2013-02-02 14:16:00,
2013-02-02 09:21:00,21.1,9.0,30.30,NE,43,0.0,1.0,59,0.00,,CLR,0.00,VWS V14.00,2013-02-02 14:21:00,
2013-02-02 09:26:00,21.5,9.0,30.30,WSW,248,0.0,3.0,58,0.00,,CLR,0.00,VWS V14.00,2013-02-02 14:26:00,
2013-02-02 09:31:00,21.6,9.1,30.29,WSW,239,0.0,3.0,58,0.00,,CLR,0.00,VWS V14.00,2013-02-02 14:31:00,
2013-02-02 09:36:00,21.8,9.7,30.29,WSW,254,4.0,4.0,59,0.00,,CLR,0.00,VWS V14.00,2013-02-02 14:36:00,
2013-02-02 09:41:00,22.1,10.4,30.29,SSW,200,2.0,4.0,60,0.00,,CLR,0.00,VWS V14.00,2013-02-02 14:41:00,
2013-02-02 09:46:00,22.3,9.8,30.29,SW,227,1.0,4.0,58,0.00,,CLR,0.00,VWS V14.00,2013-02-02 14:46:00,
2013-02-02 09:51:00,22.4,9.5,30.29,West,273,0.0,3.0,57,0.00,,CLR,0.00,VWS V14.00,2013-02-02 14:51:00,
2013-02-02 09:56:00,22.6,9.3,30.29,West,270,3.0,6.0,56,0.00,,CLR,0.00,VWS V14.00,2013-02-02 14:56:00,
2013-02-02 10:01:00,22.8,9.5,30.28,West,266,2.0,4.0,56,0.00,,CLR,0.00,VWS V14.00,2013-02-02 15:01:00,
2013-02-02 10:06:00,23.0,10.1,30.28,SW,223,5.0,7.0,57,0.00,,CLR,0.00,VWS V14.00,2013-02-02 15:06:00,
2013-02-02 10:11:00,23.4,10.4,30.28,South,172,5.0,10.0,57,0.00,,CLR,0.00,VWS V14.00,2013-02-02 15:11:00,
2013-02-02 10:16:00,23.6,10.2,30.28,SSW,206,0.0,6.0,56,0.00,,CLR,0.00,VWS V14.00,2013-02-02 15:16:00,
2013-02-02 10:21:00,23.9,10.1,30.28,SW,232,3.0,3.0,55,0.00,,CLR,0.00,VWS V14.00,2013-02-02 15:21:00,
2013-02-02 10:26:00,23.9,10.1,30.28,SSE,166,6.0,10.0,55,0.00,,CLR,0.00,VWS V14.00,2013-02-02 15:26:00,
2013-02-02 10:31:00,24.0,9.8,30.28,SW,225,0.0,3.0,54,0.00,,CLR,0.00,VWS V14.00,2013-02-02 15:31:00,
2013-02-02 10:36:00,24.0,9.8,30.28,SSW,201,0.0,2.0,54,0.00,,CLR,0.00,VWS V14.00,2013-02-02 15:36:00,
2013-02-02 10:41:00,24.2,10.4,30.28,SSE,164,2.0,4.0,55,0.00,,CLR,0.00,VWS V14.00,2013-02-02 15:41:00,
2013-02-02 10:46:00,24.7,10.4,30.27,SW,228,4.0,5.0,54,0.00,,CLR,0.00,VWS V14.00,2013-02-02 15:46:00,
2013-02-02 10:51:00,24.9,10.6,30.27,West,272,2.0,5.0,54,0.00,,CLR,0.00,VWS V14.00,2013-02-02 15:51:00,
2013-02-02 10:56:00,25.1,10.0,30.27,South,182,5.0,10.0,52,0.00,,CLR,0.00,VWS V14.00,2013-02-02 15:56:00,
2013-02-02 11:05:00,25.3,10.6,30.26,SW,225,4.0,11.0,53,0.00,,CLR,0.00,VWS V14.00,2013-02-02 16:05:00,
2013-02-02 11:10:00,26.2,11.0,30.26,SSW,207,2.0,4.0,52,0.00,,SCT110,0.00,VWS V14.00,2013-02-02 16:10:00,
2013-02-02 11:15:00,26.7,11.4,30.26,SSE,154,5.0,6.0,52,0.00,,SCT110,0.00,VWS V14.00,2013-02-02 16:15:00,
2013-02-02 11:20:00,27.0,11.3,30.26,West,265,0.0,0.0,51,0.00,,SCT110,0.00,VWS V14.00,2013-02-02 16:20:00,
2013-02-02 11:25:00,27.2,11.5,30.26,SW,217,1.0,1.0,51,0.00,,SCT110,0.00,VWS V14.00,2013-02-02 16:25:00,
2013-02-02 11:30:00,27.4,11.7,30.25,SSE,154,6.0,7.0,51,0.00,,SCT110,0.00,VWS V14.00,2013-02-02 16:30:00,
2013-02-02 11:35:00,27.6,10.9,30.25,SSE,150,1.0,1.0,49,0.00,,SCT110,0.00,VWS V14.00,2013-02-02 16:35:00,
2013-02-02 11:40:00,28.0,11.3,30.25,WSW,248,2.0,3.0,49,0.00,,SCT110,0.00,VWS V14.00,2013-02-02 16:40:00,
2013-02-02 11:45:00,28.2,11.5,30.24,SSW,213,2.0,3.0,49,0.00,,SCT110,0.00,VWS V14.00,2013-02-02 16:45:00,
2013-02-02 11:50:00,28.1,10.9,30.24,South,190,1.0,1.0,48,0.00,,SCT110,0.00,VWS V14.00,2013-02-02 16:50:00,
2013-02-02 11:55:00,28.2,11.5,30.24,WSW,249,2.0,2.0,49,0.00,,SCT110,0.00,VWS V14.00,2013-02-02 16:55:00,
2013-02-02 12:00:00,28.2,11.5,30.23,WSW,244,1.0,11.0,49,0.00,,CLR,0.00,VWS V14.00,2013-02-02 17:00:00,
2013-02-02 12:05:00,28.3,11.1,30.23,WNW,291,2.0,2.0,48,0.00,,CLR,0.00,VWS V14.00,2013-02-02 17:05:00,
2013-02-02 12:10:00,28.3,11.1,30.23,NW,322,4.0,4.0,48,0.00,,CLR,0.00,VWS V14.00,2013-02-02 17:10:00,
2013-02-02 12:15:00,28.5,11.8,30.22,West,270,2.0,3.0,49,0.00,,CLR,0.00,VWS V14.00,2013-02-02 17:15:00,
2013-02-02 12:20:00,28.5,10.9,30.22,West,263,3.0,3.0,47,0.00,,CLR,0.00,VWS V14.00,2013-02-02 17:20:00,
2013-02-02 12:25:00,28.3,11.1,30.22,WNW,282,0.0,2.0,48,0.00,,CLR,0.00,VWS V14.00,2013-02-02 17:25:00,
2013-02-02 12:30:00,28.0,11.3,30.21,WSW,250,3.0,3.0,49,0.00,,CLR,0.00,VWS V14.00,2013-02-02 17:30:00,
2013-02-02 12:35:00,28.1,10.9,30.21,WSW,252,5.0,5.0,48,0.00,,CLR,0.00,VWS V14.00,2013-02-02 17:35:00,
2013-02-02 12:40:00,28.2,11.0,30.21,WSW,253,1.0,2.0,48,0.00,,CLR,0.00,VWS V14.00,2013-02-02 17:40:00,
2013-02-02 12:45:00,28.4,10.8,30.20,NW,307,5.0,5.0,47,0.00,,CLR,0.00,VWS V14.00,2013-02-02 17:45:00,
2013-02-02 12:50:00,28.7,10.6,30.20,NW,310,1.0,2.0,46,0.00,,CLR,0.00,VWS V14.00,2013-02-02 17:50:00,
2013-02-02 12:55:00,28.9,10.7,30.20,WSW,254,0.0,0.0,46,0.00,,CLR,0.00,VWS V14.00,2013-02-02 17:55:00,
2013-02-02 13:00:00,28.9,9.7,30.19,WSW,257,4.0,4.0,44,0.00,,CLR,0.00,VWS V14.00,2013-02-02 18:00:00,
2013-02-02 13:05:00,28.9,10.2,30.19,WSW,256,5.0,7.0,45,0.00,,SCT080,0.00,VWS V14.00,2013-02-02 18:05:00,
2013-02-02 13:10:00,29.2,11.0,30.19,West,267,1.0,1.0,46,0.00,,SCT080,0.00,VWS V14.00,2013-02-02 18:10:00,
2013-02-02 13:15:00,29.4,10.7,30.18,SW,220,4.0,10.0,45,0.00,,SCT080,0.00,VWS V14.00,2013-02-02 18:15:00,
2013-02-02 13:20:00,29.4,10.7,30.18,WSW,246,2.0,8.0,45,0.00,,SCT080,0.00,VWS V14.00,2013-02-02 18:20:00,
2013-02-02 13:25:00,29.3,10.6,30.18,WNW,292,5.0,6.0,45,0.00,,SCT080,0.00,VWS V14.00,2013-02-02 18:25:00,
2013-02-02 13:30:00,29.3,10.6,30.18,SSW,213,10.0,10.0,45,0.00,,SCT080,0.00,VWS V14.00,2013-02-02 18:30:00,
2013-02-02 13:35:00,29.1,10.4,30.18,WSW,239,1.0,3.0,45,0.00,,SCT080,0.00,VWS V14.00,2013-02-02 18:35:00,
2013-02-02 13:40:00,29.2,10.5,30.18,West,263,2.0,3.0,45,0.00,,SCT080,0.00,VWS V14.00,2013-02-02 18:40:00,
2013-02-02 13:45:00,29.6,10.9,30.17,West,277,2.0,2.0,45,0.00,,SCT080,0.00,VWS V14.00,2013-02-02 18:45:00,
2013-02-02 13:50:00,29.9,11.2,30.17,WNW,288,2.0,3.0,45,0.00,,SCT080,0.00,VWS V14.00,2013-02-02 18:50:00,
2013-02-02 13:55:00,29.8,11.1,30.17,SSW,194,2.0,3.0,45,0.00,,SCT080,0.00,VWS V14.00,2013-02-02 18:55:00,
2013-02-02 14:00:00,29.7,11.0,30.16,WSW,240,3.0,5.0,45,0.00,,OVC060,0.00,VWS V14.00,2013-02-02 19:00:00,
2013-02-02 14:05:00,29.6,10.9,30.16,SW,226,0.0,2.0,45,0.00,,OVC060,0.00,VWS V14.00,2013-02-02 19:05:00,
2013-02-02 14:10:00,29.7,10.5,30.16,NW,313,7.0,7.0,44,0.00,,OVC060,0.00,VWS V14.00,2013-02-02 19:10:00,
2013-02-02 14:15:00,29.6,10.9,30.16,NW,317,5.0,6.0,45,0.00,,OVC060,0.00,VWS V14.00,2013-02-02 19:15:00,
2013-02-02 14:20:00,29.4,11.2,30.16,WNW,292,2.0,2.0,46,0.00,,OVC060,0.00,VWS V14.00,2013-02-02 19:20:00,
2013-02-02 14:25:00,29.6,11.4,30.16,West,276,2.0,4.0,46,0.00,,OVC060,0.00,VWS V14.00,2013-02-02 19:25:00,
2013-02-02 14:30:00,29.6,11.4,30.15,West,273,0.0,1.0,46,0.00,,OVC060,0.00,VWS V14.00,2013-02-02 19:30:00,
2013-02-02 14:35:00,29.6,10.9,30.15,South,171,1.0,3.0,45,0.00,,OVC060,0.00,VWS V14.00,2013-02-02 19:35:00,
2013-02-02 14:40:00,29.6,11.9,30.15,West,272,0.0,0.0,47,0.00,,OVC060,0.00,VWS V14.00,2013-02-02 19:40:00,
2013-02-02 14:45:00,29.6,11.9,30.14,WSW,246,1.0,2.0,47,0.00,,OVC060,0.00,VWS V14.00,2013-02-02 19:45:00,
2013-02-02 14:50:00,29.5,11.8,30.14,West,277,0.0,1.0,47,0.00,,OVC060,0.00,VWS V14.00,2013-02-02 19:50:00,
2013-02-02 14:55:00,29.5,12.2,30.14,West,268,3.0,3.0,48,0.00,,OVC060,0.00,VWS V14.00,2013-02-02 19:55:00,
2013-02-02 15:06:00,29.4,13.1,30.14,SW,225,4.0,12.0,50,0.00,,OVC060,0.00,VWS V14.00,2013-02-02 20:06:00,
2013-02-02 15:11:00,29.3,13.4,30.14,West,273,3.0,5.0,51,0.00,,OVC085,0.00,VWS V14.00,2013-02-02 20:11:00,
2013-02-02 15:15:00,29.3,13.4,30.13,SW,222,1.0,1.0,51,0.00,,OVC085,0.00,VWS V14.00,2013-02-02 20:15:00,
2013-02-02 15:21:00,29.2,12.9,30.13,West,276,1.0,3.0,50,0.00,,OVC085,0.00,VWS V14.00,2013-02-02 20:21:00,
2013-02-02 15:26:00,29.1,12.8,30.13,WSW,248,0.0,2.0,50,0.00,,OVC085,0.00,VWS V14.00,2013-02-02 20:26:00,
2013-02-02 15:31:00,29.0,12.7,30.13,WSW,249,3.0,6.0,50,0.00,,OVC085,0.00,VWS V14.00,2013-02-02 20:31:00,
2013-02-02 15:36:00,28.8,13.0,30.13,SW,215,4.0,7.0,51,0.00,,OVC085,0.00,VWS V14.00,2013-02-02 20:36:00,
2013-02-02 15:41:00,28.8,13.0,30.13,WSW,248,0.0,0.0,51,0.00,,OVC085,0.00,VWS V14.00,2013-02-02 20:41:00,
2013-02-02 15:45:00,28.8,13.4,30.12,SSW,210,0.0,0.0,52,0.00,,OVC085,0.00,VWS V14.00,2013-02-02 20:45:00,
2013-02-02 15:51:00,28.8,13.4,30.12,NNW,329,2.0,2.0,52,0.00,,OVC085,0.00,VWS V14.00,2013-02-02 20:51:00,
2013-02-02 15:56:00,28.8,13.4,30.12,SW,226,4.0,7.0,52,0.00,,OVC085,0.00,VWS V14.00,2013-02-02 20:56:00,
2013-02-02 16:01:00,28.8,13.4,30.12,West,267,0.0,0.0,52,0.00,,OVC085,0.00,VWS V14.00,2013-02-02 21:01:00,
2013-02-02 16:06:00,28.8,13.8,30.12,SSW,194,3.0,4.0,53,0.00,,OVC055,0.00,VWS V14.00,2013-02-02 21:06:00,
2013-02-02 16:11:00,28.8,13.4,30.12,SSW,192,2.0,2.0,52,0.00,,OVC055,0.00,VWS V14.00,2013-02-02 21:11:00,
2013-02-02 16:16:00,28.7,13.3,30.11,SW,225,1.0,4.0,52,0.00,,OVC055,0.00,VWS V14.00,2013-02-02 21:16:00,
2013-02-02 16:21:00,28.7,13.8,30.11,West,265,0.0,2.0,53,0.00,,OVC055,0.00,VWS V14.00,2013-02-02 21:21:00,
2013-02-02 16:30:00,28.7,13.7,30.11,SSW,209,0.0,4.0,53,0.00,,OVC055,0.00,VWS V14.00,2013-02-02 21:30:00,
2013-02-02 16:35:00,28.7,14.2,30.11,SSE,154,0.0,4.0,54,0.00,,OVC055,0.00,VWS V14.00,2013-02-02 21:35:00,
2013-02-02 16:40:00,28.6,13.6,30.11,South,176,0.0,3.0,53,0.00,,OVC055,0.00,VWS V14.00,2013-02-02 21:40:00,
2013-02-02 16:45:00,28.6,13.6,30.11,WNW,291,0.0,3.0,53,0.00,,OVC055,0.00,VWS V14.00,2013-02-02 21:45:00,
2013-02-02 16:50:00,28.5,14.0,30.11,SW,233,0.0,2.0,54,0.00,,OVC055,0.00,VWS V14.00,2013-02-02 21:50:00,
2013-02-02 16:55:00,28.4,13.5,30.11,SSW,213,4.0,10.0,53,0.00,,OVC055,0.00,VWS V14.00,2013-02-02 21:55:00,
2013-02-02 17:00:00,28.3,13.4,30.10,SSW,192,1.0,9.0,53,0.00,,OVC055,0.00,VWS V14.00,2013-02-02 22:00:00,
2013-02-02 17:05:00,28.2,13.3,30.10,WSW,239,1.0,10.0,53,0.00,,OVC055,0.00,VWS V14.00,2013-02-02 22:05:00,
2013-02-02 17:10:00,28.1,13.6,30.10,SW,221,2.0,12.0,54,0.00,,OVC055,0.00,VWS V14.00,2013-02-02 22:10:00,
2013-02-02 17:15:00,28.0,14.4,30.10,SW,226,2.0,12.0,56,0.00,,OVC055,0.00,VWS V14.00,2013-02-02 22:15:00,
2013-02-02 17:20:00,27.9,14.2,30.10,SSW,207,3.0,10.0,56,0.00,,OVC055,0.00,VWS V14.00,2013-02-02 22:20:00,
2013-02-02 17:25:00,27.8,15.0,30.10,SSW,192,0.0,8.0,58,0.00,,OVC055,0.00,VWS V14.00,2013-02-02 22:25:00,
2013-02-02 17:30:00,27.6,14.8,30.10,SW,230,5.0,11.0,58,0.00,,OVC055,0.00,VWS V14.00,2013-02-02 22:30:00,
2013-02-02 17:35:00,27.4,14.6,30.10,SE,126,4.0,7.0,58,0.00,,OVC055,0.00,VWS V14.00,2013-02-02 22:35:00,
2013-02-02 17:40:00,27.3,14.5,30.10,SSW,211,0.0,12.0,58,0.00,,OVC055,0.00,VWS V14.00,2013-02-02 22:40:00,
2013-02-02 17:45:00,27.2,14.8,30.10,SW,221,7.0,7.0,59,0.00,,OVC055,0.00,VWS V14.00,2013-02-02 22:45:00,
2013-02-02 17:50:00,27.1,14.7,30.10,WSW,241,0.0,10.0,59,0.00,,OVC055,0.00,VWS V14.00,2013-02-02 22:50:00,
2013-02-02 17:55:00,27.1,14.7,30.10,WSW,246,5.0,9.0,59,0.00,,OVC055,0.00,VWS V14.00,2013-02-02 22:55:00,
2013-02-02 18:00:00,27.1,14.7,30.09,SW,216,0.0,5.0,59,0.00,,OVC055,0.00,VWS V14.00,2013-02-02 23:00:00,
2013-02-02 18:05:00,27.1,15.1,30.09,South,186,4.0,10.0,60,0.00,,OVC055,0.00,VWS V14.00,2013-02-02 23:05:00,
2013-02-02 18:10:00,27.1,15.1,30.09,South,190,4.0,12.0,60,0.00,,OVC055,0.00,VWS V14.00,2013-02-02 23:10:00,
2013-02-02 18:15:00,27.1,15.4,30.09,SSW,206,0.0,9.0,61,0.00,,OVC055,0.00,VWS V14.00,2013-02-02 23:15:00,
2013-02-02 18:20:00,27.0,15.7,30.09,SSW,205,6.0,10.0,62,0.00,,OVC055,0.00,VWS V14.00,2013-02-02 23:20:00,
2013-02-02 18:25:00,27.0,15.7,30.09,SW,225,0.0,10.0,62,0.00,,OVC055,0.00,VWS V14.00,2013-02-02 23:25:00,
2013-02-02 18:30:00,27.0,15.7,30.09,WSW,257,0.0,7.0,62,0.00,,OVC055,0.00,VWS V14.00,2013-02-02 23:30:00,
2013-02-02 18:35:00,27.0,16.1,30.09,SSW,206,5.0,9.0,63,0.00,,OVC055,0.00,VWS V14.00,2013-02-02 23:35:00,
2013-02-02 18:40:00,26.9,16.0,30.09,South,183,0.0,6.0,63,0.00,,OVC055,0.00,VWS V14.00,2013-02-02 23:40:00,
2013-02-02 18:45:00,26.9,16.4,30.09,SW,217,3.0,9.0,64,0.00,,OVC055,0.00,VWS V14.00,2013-02-02 23:45:00,
2013-02-02 18:50:00,26.9,16.4,30.09,SSW,213,10.0,11.0,64,0.00,,OVC055,0.00,VWS V14.00,2013-02-02 23:50:00,
2013-02-02 18:55:00,26.9,16.4,30.09,SSW,192,0.0,7.0,64,0.00,,OVC055,0.00,VWS V14.00,2013-02-02 23:55:00,
2013-02-02 19:00:00,27.0,16.5,30.09,WSW,244,3.0,8.0,64,0.00,,OVC055,0.00,VWS V14.00,2013-02-03 00:00:00,
2013-02-02 19:05:00,27.0,16.5,30.09,SW,234,2.0,4.0,64,0.00,,OVC055,0.00,VWS V14.00,2013-02-03 00:05:00,
2013-02-02 19:10:00,27.0,16.5,30.09,SSE,167,1.0,4.0,64,0.00,,OVC055,0.00,VWS V14.00,2013-02-03 00:10:00,
2013-02-02 19:15:00,27.0,16.8,30.09,SSW,194,1.0,7.0,65,0.00,,OVC055,0.00,VWS V14.00,2013-02-03 00:15:00,
2013-02-02 19:20:00,27.0,16.8,30.09,South,190,3.0,5.0,65,0.00,,OVC055,0.00,VWS V14.00,2013-02-03 00:20:00,
2013-02-02 19:25:00,27.0,17.5,30.09,SW,223,3.0,9.0,67,0.00,,OVC055,0.00,VWS V14.00,2013-02-03 00:25:00,
2013-02-02 19:30:00,26.9,17.8,30.09,SSW,208,3.0,11.0,68,0.00,,OVC055,0.00,VWS V14.00,2013-02-03 00:30:00,
2013-02-02 19:35:00,26.7,17.9,30.09,SSW,195,0.0,10.0,69,0.00,,OVC055,0.00,VWS V14.00,2013-02-03 00:35:00,
2013-02-02 19:40:00,26.6,18.1,30.09,SW,221,2.0,10.0,70,0.00,,OVC055,0.00,VWS V14.00,2013-02-03 00:40:00,
2013-02-02 19:45:00,26.5,18.4,30.09,WSW,244,3.0,8.0,71,0.00,,OVC055,0.00,VWS V14.00,2013-02-03 00:45:00,
2013-02-02 19:50:00,26.4,18.6,30.09,South,182,0.0,10.0,72,0.00,,OVC055,0.00,VWS V14.00,2013-02-03 00:50:00,
2013-02-02 19:55:00,26.3,18.8,30.09,SW,215,2.0,6.0,73,0.00,,OVC055,0.00,VWS V14.00,2013-02-03 00:55:00,
2013-02-02 20:05:00,26.2,19.1,30.09,SW,225,1.0,5.0,74,0.00,,OVC055,0.00,VWS V14.00,2013-02-03 01:05:00,
2013-02-02 20:10:00,26.1,19.3,30.09,South,189,0.0,1.0,75,0.00,,,0.00,VWS V14.00,2013-02-03 01:10:00,
2013-02-02 20:15:00,26.0,19.5,30.09,SW,231,0.0,1.0,76,0.00,,,0.00,VWS V14.00,2013-02-03 01:15:00,
2013-02-02 20:20:00,25.9,19.7,30.09,SW,233,1.0,2.0,77,0.00,,,0.00,VWS V14.00,2013-02-03 01:20:00,
2013-02-02 20:25:00,25.8,19.6,30.09,SSW,202,0.0,0.0,77,0.00,,,0.00,VWS V14.00,2013-02-03 01:25:00,
2013-02-02 20:30:00,25.7,19.8,30.09,SSW,211,1.0,3.0,78,0.00,,,0.00,VWS V14.00,2013-02-03 01:30:00,
2013-02-02 20:35:00,25.7,19.8,30.09,SSW,211,0.0,1.0,78,0.00,,,0.00,VWS V14.00,2013-02-03 01:35:00,
2013-02-02 20:40:00,25.6,20.0,30.09,SSW,212,0.0,0.0,79,0.00,,,0.00,VWS V14.00,2013-02-03 01:40:00,
2013-02-02 20:45:00,25.6,20.3,30.09,SSW,212,0.0,0.0,80,0.00,,,0.00,VWS V14.00,2013-02-03 01:45:00,
2013-02-02 20:50:00,25.6,20.3,30.09,SSW,212,0.0,0.0,80,0.00,,,0.00,VWS V14.00,2013-02-03 01:50:00,
2013-02-02 20:55:00,25.5,20.5,30.09,SSW,212,0.0,0.0,81,0.00,,,0.00,VWS V14.00,2013-02-03 01:55:00,
2013-02-02 21:00:00,25.5,20.5,30.09,SSW,209,0.0,0.0,81,0.00,,,0.00,VWS V14.00,2013-02-03 02:00:00,
2013-02-02 21:05:00,25.5,20.5,30.09,SSW,209,0.0,0.0,81,0.00,,,0.00,VWS V14.00,2013-02-03 02:05:00,
2013-02-02 21:10:00,25.4,20.7,30.09,SSW,195,0.0,1.0,82,0.00,,,0.00,VWS V14.00,2013-02-03 02:10:00,
2013-02-02 21:15:00,25.4,20.7,30.08,SSW,195,0.0,1.0,82,0.00,,,0.00,VWS V14.00,2013-02-03 02:15:00,
2013-02-02 21:20:00,25.3,20.6,30.08,SSW,194,0.0,1.0,82,0.00,,,0.00,VWS V14.00,2013-02-03 02:20:00,
2013-02-02 21:25:00,25.3,20.9,30.08,SSW,201,0.0,0.0,83,0.00,,,0.00,VWS V14.00,2013-02-03 02:25:00,
2013-02-02 21:30:00,25.3,20.9,30.08,South,171,0.0,1.0,83,0.00,,,0.00,VWS V14.00,2013-02-03 02:30:00,
2013-02-02 21:35:00,25.3,20.9,30.08,South,174,0.0,0.0,83,0.00,,,0.00,VWS V14.00,2013-02-03 02:35:00,
2013-02-02 21:40:00,25.3,21.1,30.08,South,178,0.0,0.0,84,0.00,,,0.00,VWS V14.00,2013-02-03 02:40:00,
2013-02-02 21:45:00,25.3,21.1,30.08,South,179,0.0,0.0,84,0.00,,,0.00,VWS V14.00,2013-02-03 02:45:00,
2013-02-02 21:50:00,25.3,21.1,30.08,South,179,0.0,0.0,84,0.00,,,0.00,VWS V14.00,2013-02-03 02:50:00,
2013-02-02 21:55:00,25.3,21.1,30.08,South,179,0.0,0.0,84,0.00,,,0.00,VWS V14.00,2013-02-03 02:55:00,
2013-02-02 22:00:00,25.3,21.1,30.07,South,179,0.0,0.0,84,0.00,,,0.00,VWS V14.00,2013-02-03 03:00:00,
2013-02-02 22:06:00,25.3,21.4,30.07,South,179,0.0,0.0,85,0.00,,,0.00,VWS V14.00,2013-02-03 03:06:00,
2013-02-02 22:11:00,25.3,21.4,30.07,South,178,0.0,0.0,85,0.00,,,0.00,VWS V14.00,2013-02-03 03:11:00,
2013-02-02 22:16:00,25.3,21.4,30.07,South,179,0.0,0.0,85,0.00,,,0.00,VWS V14.00,2013-02-03 03:16:00,
2013-02-02 22:21:00,25.4,21.5,30.07,South,179,0.0,0.0,85,0.00,,,0.00,VWS V14.00,2013-02-03 03:21:00,
2013-02-02 22:26:00,25.4,21.8,30.07,South,179,0.0,0.0,86,0.00,,,0.00,VWS V14.00,2013-02-03 03:26:00,
2013-02-02 22:30:00,25.4,21.8,30.05,South,179,0.0,1.0,86,0.00,,,0.00,VWS V14.00,2013-02-03 03:30:00,
2013-02-02 22:35:00,25.4,21.8,30.05,South,179,0.0,0.0,86,0.00,,,0.00,VWS V14.00,2013-02-03 03:35:00,
2013-02-02 22:41:00,25.4,21.8,30.05,South,178,0.0,0.0,86,0.00,,,0.00,VWS V14.00,2013-02-03 03:41:00,
2013-02-02 22:46:00,25.3,22.0,30.05,South,179,0.0,0.0,87,0.00,,,0.00,VWS V14.00,2013-02-03 03:46:00,
2013-02-02 22:51:00,25.3,22.0,30.05,South,179,0.0,0.0,87,0.00,,,0.00,VWS V14.00,2013-02-03 03:51:00,
2013-02-02 22:56:00,25.3,22.0,30.05,South,179,0.0,0.0,87,0.00,,,0.00,VWS V14.00,2013-02-03 03:56:00,
2013-02-02 23:01:00,25.3,22.0,30.04,South,179,1.0,1.0,87,0.00,,,0.00,VWS V14.00,2013-02-03 04:01:00,
2013-02-02 23:06:00,25.3,22.0,30.04,South,186,0.0,0.0,87,0.00,,,0.00,VWS V14.00,2013-02-03 04:06:00,
2013-02-02 23:11:00,25.3,22.0,30.04,South,185,0.0,2.0,87,0.00,,,0.00,VWS V14.00,2013-02-03 04:11:00,
2013-02-02 23:16:00,25.3,22.0,30.04,South,184,0.0,0.0,87,0.00,,,0.00,VWS V14.00,2013-02-03 04:16:00,
2013-02-02 23:21:00,25.4,22.1,30.04,South,184,0.0,0.0,87,0.00,,,0.00,VWS V14.00,2013-02-03 04:21:00,
2013-02-02 23:26:00,25.5,22.2,30.04,South,185,0.0,0.0,87,0.00,,,0.00,VWS V14.00,2013-02-03 04:26:00,
2013-02-02 23:31:00,25.5,22.2,30.03,South,184,0.0,0.0,87,0.00,,,0.00,VWS V14.00,2013-02-03 04:31:00,
2013-02-02 23:36:00,25.5,22.2,30.03,South,185,0.0,0.0,87,0.00,,,0.00,VWS V14.00,2013-02-03 04:36:00,
2013-02-02 23:41:00,25.5,22.5,30.03,South,184,0.0,0.0,88,0.00,,,0.00,VWS V14.00,2013-02-03 04:41:00,
2013-02-02 23:46:00,25.4,22.4,30.03,South,173,1.0,2.0,88,0.00,,,0.00,VWS V14.00,2013-02-03 04:46:00,
2013-02-02 23:51:00,25.4,22.4,30.03,South,173,0.0,0.0,88,0.00,,,0.00,VWS V14.00,2013-02-03 04:51:00,
2013-02-02 23:56:00,25.4,22.4,30.03,South,173,0.0,0.0,88,0.00,,,0.00,VWS V14.00,2013-02-03 04:56:00,